When you browse on this site, cookies collect data to enhance your experience and personalize the content and advertising you see.
Visit our Privacy Policy to learn more. By continuing to use the site, you agree to this use of cookies and data.
  • In Latvia
  • List of Countries
  • For 7 days
  • Water Temperature
  • Satellite Maps
  • Weather Map
  • Weather Widgets
  • user-avatar
    Login

    Hourly Weather Oktyabrskiy

    Today, 25 March, Monday

    Time Temperature Precipitation Wind Pressure Humidity
    00:00 -2°C° 0 mm 2 mps 739 mmHg 88%
    01:00 -2°C° 0 mm 2 mps 739 mmHg 87%
    02:00 -2°C° 0 mm 2 mps 739 mmHg 86%
    03:00 -2°C° 0 mm 2 mps 739 mmHg 86%
    04:00 -2°C° 0 mm 2 mps 739 mmHg 84%
    05:00 -2°C° 0 mm 2 mps 739 mmHg 81%
    06:00 -2°C° 0 mm 2 mps 738 mmHg 79%
    07:00 +1°C° 0 mm 2 mps 738 mmHg 72%
    08:00 +3°C° 0 mm 2 mps 738 mmHg 64%
    09:00 +5°C° 0 mm 2 mps 738 mmHg 57%
    10:00 +6°C° 0 mm 2 mps 738 mmHg 54%
    11:00 +8°C° 0 mm 1 mps 738 mmHg 52%
    12:00 +9°C° 0 mm 1 mps 737 mmHg 49%
    13:00 +10°C° 0 mm 1 mps 737 mmHg 49%
    14:00 +10°C° 0 mm 1 mps 737 mmHg 49%
    15:00 +11°C° 0 mm 1 mps 736 mmHg 49%
    16:00 +10°C° 0 mm 1 mps 736 mmHg 54%
    17:00 +9°C° 0 mm 1 mps 736 mmHg 60%
    18:00 +8°C° 0 mm 1 mps 736 mmHg 65%
    19:00 +7°C° 0 mm 1 mps 736 mmHg 68%
    20:00 +6°C° 0 mm 1 mps 736 mmHg 72%
    21:00 +5°C° 0 mm 1 mps 737 mmHg 75%
    22:00 +4°C° 0 mm 1 mps 737 mmHg 76%
    23:00 +4°C° 0 mm 1 mps 736 mmHg 78%

    Tomorrow, 26 March, Tuesday

    Time Temperature Precipitation Wind Pressure Humidity
    00:00 +4°C° 0 mm 1 mps 736 mmHg 79%
    01:00 +3°C° 0 mm 1 mps 736 mmHg 79%
    02:00 +3°C° 0 mm 1 mps 736 mmHg 79%
    03:00 +3°C° 0 mm 1 mps 736 mmHg 79%
    04:00 +3°C° 0 mm 1 mps 736 mmHg 79%
    05:00 +2°C° 0 mm 1 mps 736 mmHg 78%
    06:00 +2°C° 0 mm 1 mps 736 mmHg 78%
    07:00 +4°C° 0 mm 1 mps 736 mmHg 71%
    08:00 +7°C° 0 mm 1 mps 736 mmHg 64%
    09:00 +8°C° 0 mm 0 mps 736 mmHg 57%
    10:00 +10°C° 0 mm 1 mps 736 mmHg 53%
    11:00 +12°C° 0 mm 1 mps 735 mmHg 48%
    12:00 +14°C° 0 mm 1 mps 735 mmHg 44%
    13:00 +14°C° 0 mm 1 mps 735 mmHg 42%
    14:00 +15°C° 0 mm 1 mps 734 mmHg 41%
    15:00 +15°C° 0 mm 2 mps 734 mmHg 40%
    16:00 +14°C° 0 mm 2 mps 734 mmHg 46%
    17:00 +13°C° 0 mm 1 mps 734 mmHg 51%
    18:00 +12°C° 0 mm 1 mps 734 mmHg 57%
    19:00 +11°C° 0 mm 1 mps 734 mmHg 59%
    20:00 +9°C° 0 mm 1 mps 734 mmHg 62%
    21:00 +8°C° 0 mm 1 mps 735 mmHg 64%
    22:00 +7°C° 0 mm 1 mps 735 mmHg 66%
    23:00 +7°C° 0 mm 1 mps 735 mmHg 67%

    Day after tomorrow, 27 March, Wednesday

    Time Temperature Precipitation Wind Pressure Humidity
    00:00 +7°C° 0 mm 1 mps 735 mmHg 69%
    01:00 +6°C° 0 mm 1 mps 735 mmHg 71%
    02:00 +6°C° 0 mm 1 mps 735 mmHg 73%
    03:00 +5°C° 0 mm 1 mps 735 mmHg 76%
    04:00 +5°C° 0 mm 1 mps 735 mmHg 77%
    05:00 +5°C° 0 mm 1 mps 736 mmHg 79%
    06:00 +5°C° 0 mm 1 mps 736 mmHg 81%
    07:00 +6°C° 0 mm 1 mps 736 mmHg 75%
    08:00 +8°C° 0 mm 1 mps 736 mmHg 68%
    09:00 +10°C° 0 mm 1 mps 737 mmHg 62%
    10:00 +10°C° 0 mm 2 mps 737 mmHg 59%
    11:00 +11°C° 0 mm 3 mps 737 mmHg 57%
    12:00 +13°C° 0 mm 4 mps 737 mmHg 54%
    13:00 +13°C° 0 mm 4 mps 737 mmHg 56%
    14:00 +13°C° 0 mm 4 mps 737 mmHg 58%
    15:00 +13°C° 0 mm 5 mps 737 mmHg 60%
    16:00 +12°C° 0.1 mm 5 mps 738 mmHg 65%
    17:00 +11°C° 0.1 mm 4 mps 738 mmHg 71%
    18:00 +8°C° 0.1 mm 4 mps 738 mmHg 76%
    19:00 +7°C° 0.1 mm 4 mps 739 mmHg 73%
    20:00 +6°C° 0.1 mm 4 mps 740 mmHg 69%
    21:00 +5°C° 0.1 mm 3 mps 740 mmHg 66%
    22:00 +5°C° 0.1 mm 3 mps 740 mmHg 66%
    23:00 +4°C° 0.1 mm 3 mps 741 mmHg 67%

    28 March, Thursday

    Time Temperature Precipitation Wind Pressure Humidity
    00:00 +3°C° 0.1 mm 3 mps 741 mmHg 68%
    01:00 +3°C° 0 mm 3 mps 741 mmHg 72%
    02:00 +2°C° 0 mm 3 mps 742 mmHg 76%
    03:00 +2°C° 0 mm 2 mps 742 mmHg 80%
    04:00 +1°C° 0 mm 2 mps 742 mmHg 81%
    05:00 +1°C° 0 mm 2 mps 743 mmHg 82%
    06:00 +1°C° 0 mm 1 mps 743 mmHg 83%
    07:00 +1°C° 0 mm 2 mps 743 mmHg 72%
    08:00 +3°C° 0 mm 2 mps 743 mmHg 62%
    09:00 +4°C° 0 mm 2 mps 744 mmHg 52%
    10:00 +5°C° 0 mm 2 mps 744 mmHg 47%
    11:00 +5°C° 0 mm 3 mps 744 mmHg 42%
    12:00 +7°C° 0 mm 3 mps 744 mmHg 37%
    13:00 +7°C° 0 mm 3 mps 744 mmHg 37%
    14:00 +7°C° 0 mm 3 mps 743 mmHg 37%
    15:00 +8°C° 0 mm 3 mps 743 mmHg 37%
    16:00 +7°C° 0 mm 3 mps 743 mmHg 41%
    17:00 +6°C° 0 mm 2 mps 743 mmHg 45%
    18:00 +6°C° 0 mm 2 mps 743 mmHg 49%
    19:00 +5°C° 0 mm 2 mps 744 mmHg 51%
    20:00 +4°C° 0 mm 2 mps 744 mmHg 53%
    21:00 +4°C° 0 mm 2 mps 744 mmHg 55%
    22:00 +3°C° 0 mm 2 mps 744 mmHg 57%
    23:00 +3°C° 0 mm 2 mps 744 mmHg 59%

    29 March, Friday

    Time Temperature Precipitation Wind Pressure Humidity
    00:00 +3°C° 0 mm 2 mps 744 mmHg 61%
    01:00 +2°C° 0 mm 2 mps 744 mmHg 62%
    02:00 +2°C° 0 mm 2 mps 744 mmHg 63%
    03:00 +2°C° 0 mm 2 mps 744 mmHg 64%
    04:00 +1°C° 0 mm 2 mps 744 mmHg 66%
    05:00 0°C° 0 mm 3 mps 744 mmHg 67%
    06:00 -1°C° 0 mm 3 mps 744 mmHg 69%
    07:00 +1°C° 0 mm 3 mps 744 mmHg 64%
    08:00 +2°C° 0 mm 3 mps 745 mmHg 58%
    09:00 +3°C° 0 mm 4 mps 745 mmHg 53%
    10:00 +4°C° 0 mm 4 mps 745 mmHg 50%
    11:00 +5°C° 0 mm 4 mps 744 mmHg 47%
    12:00 +6°C° 0 mm 4 mps 744 mmHg 44%
    13:00 +6°C° 0 mm 4 mps 744 mmHg 44%
    14:00 +7°C° 0 mm 4 mps 743 mmHg 43%
    15:00 +7°C° 0 mm 4 mps 743 mmHg 42%
    16:00 +6°C° 0 mm 4 mps 743 mmHg 45%
    17:00 +6°C° 0 mm 4 mps 743 mmHg 48%
    18:00 +5°C° 0 mm 3 mps 742 mmHg 52%
    19:00 +4°C° 0 mm 3 mps 743 mmHg 54%
    20:00 +3°C° 0 mm 3 mps 743 mmHg 57%
    21:00 +1°C° 0 mm 3 mps 743 mmHg 59%
    22:00 +2°C° 0 mm 2 mps 743 mmHg 62%
    23:00 +1°C° 0 mm 2 mps 742 mmHg 64%

    30 March, Saturday

    Time Temperature Precipitation Wind Pressure Humidity
    00:00 +1°C° 0 mm 2 mps 742 mmHg 66%
    01:00 -1°C° 0 mm 2 mps 742 mmHg 68%
    02:00 -1°C° 0 mm 2 mps 742 mmHg 70%
    03:00 -1°C° 0 mm 2 mps 741 mmHg 72%
    04:00 -1°C° 0 mm 2 mps 741 mmHg 73%
    05:00 -1°C° 0 mm 2 mps 741 mmHg 73%
    06:00 -1°C° 0 mm 2 mps 741 mmHg 74%
    07:00 +2°C° 0 mm 2 mps 741 mmHg 68%
    08:00 +3°C° 0 mm 3 mps 741 mmHg 62%
    09:00 +5°C° 0 mm 3 mps 741 mmHg 57%
    10:00 +7°C° 0 mm 3 mps 740 mmHg 52%
    11:00 +8°C° 0 mm 4 mps 740 mmHg 47%
    12:00 +10°C° 0 mm 4 mps 739 mmHg 43%
    13:00 +11°C° 0 mm 4 mps 739 mmHg 42%
    14:00 +11°C° 0 mm 4 mps 738 mmHg 41%
    15:00 +12°C° 0 mm 5 mps 738 mmHg 40%
    16:00 +10°C° 0 mm 5 mps 738 mmHg 44%
    17:00 +10°C° 0 mm 4 mps 738 mmHg 49%
    18:00 +8°C° 0 mm 4 mps 737 mmHg 54%
    19:00 +7°C° 0 mm 4 mps 738 mmHg 57%
    20:00 +6°C° 0 mm 4 mps 738 mmHg 60%
    21:00 +5°C° 0 mm 4 mps 738 mmHg 63%
    22:00 +4°C° 0 mm 4 mps 738 mmHg 65%
    23:00 +3°C° 0 mm 5 mps 737 mmHg 68%
    Show more